Year,Month,Day,Hour,Minute,Value (Times are PST for temperature in C)
2012,10,05,00,00,9.70
2012,10,05,00,01,9.60
2012,10,05,00,02,9.60
2012,10,05,00,03,9.50
2012,10,05,00,04,9.50
2012,10,05,00,05,9.50
2012,10,05,00,06,9.50
2012,10,05,00,07,9.50
2012,10,05,00,08,9.50
2012,10,05,00,09,9.50
2012,10,05,00,10,9.60
2012,10,05,00,11,9.60
2012,10,05,00,12,9.60
2012,10,05,00,13,9.60
2012,10,05,00,14,9.60
2012,10,05,00,15,9.50
2012,10,05,00,16,9.50
2012,10,05,00,17,9.40
2012,10,05,00,18,9.40
2012,10,05,00,19,9.40
2012,10,05,00,20,9.40
2012,10,05,00,21,9.40
2012,10,05,00,22,9.50
2012,10,05,00,23,9.50
2012,10,05,00,24,9.50
2012,10,05,00,25,9.50
2012,10,05,00,26,9.40
2012,10,05,00,27,9.40
2012,10,05,00,28,9.40
2012,10,05,00,29,9.40
2012,10,05,00,30,9.40
2012,10,05,00,31,9.30
2012,10,05,00,32,9.30
2012,10,05,00,33,9.30
2012,10,05,00,34,9.30
2012,10,05,00,35,9.40
2012,10,05,00,36,9.40
2012,10,05,00,37,9.40
2012,10,05,00,38,9.40
2012,10,05,00,39,9.40
2012,10,05,00,40,9.40
2012,10,05,00,41,9.40
2012,10,05,00,42,9.30
2012,10,05,00,43,9.30
2012,10,05,00,44,9.30
2012,10,05,00,45,9.30
2012,10,05,00,46,9.30
2012,10,05,00,47,9.30
2012,10,05,00,48,9.30
2012,10,05,00,49,9.30
2012,10,05,00,50,9.20
2012,10,05,00,51,9.20
2012,10,05,00,52,9.20
2012,10,05,00,53,9.20
2012,10,05,00,54,9.20
2012,10,05,00,55,9.10
2012,10,05,00,56,9.10
2012,10,05,00,57,9.10
2012,10,05,00,58,9.10
2012,10,05,00,59,9.10
2012,10,05,01,00,9.00
2012,10,05,01,01,9.00
2012,10,05,01,02,9.00
2012,10,05,01,03,9.00
2012,10,05,01,04,9.00
2012,10,05,01,05,9.00
2012,10,05,01,06,9.00
2012,10,05,01,07,9.00
2012,10,05,01,08,9.00
2012,10,05,01,09,9.00
2012,10,05,01,10,9.10
2012,10,05,01,11,9.10
2012,10,05,01,12,9.10
2012,10,05,01,13,9.20
2012,10,05,01,14,9.20
2012,10,05,01,15,9.20
2012,10,05,01,16,9.20
2012,10,05,01,17,9.20
2012,10,05,01,18,9.30
2012,10,05,01,19,9.30
2012,10,05,01,20,9.30
2012,10,05,01,21,9.30
2012,10,05,01,22,9.30
2012,10,05,01,23,9.30
2012,10,05,01,24,9.40
2012,10,05,01,25,9.40
2012,10,05,01,26,9.40
2012,10,05,01,27,9.40
2012,10,05,01,28,9.40
2012,10,05,01,29,9.40
2012,10,05,01,30,9.40
2012,10,05,01,31,9.40
2012,10,05,01,32,9.40
2012,10,05,01,33,9.40
2012,10,05,01,34,9.40
2012,10,05,01,35,9.50
2012,10,05,01,36,9.50
2012,10,05,01,37,9.60
2012,10,05,01,38,9.70
2012,10,05,01,39,9.70
2012,10,05,01,40,9.70
2012,10,05,01,41,9.80
2012,10,05,01,42,9.90
2012,10,05,01,43,10.10
2012,10,05,01,44,10.20
2012,10,05,01,45,10.40
2012,10,05,01,46,10.50
2012,10,05,01,47,10.60
2012,10,05,01,48,10.70
2012,10,05,01,49,10.80
2012,10,05,01,50,10.90
2012,10,05,01,51,11.10
2012,10,05,01,52,11.10
2012,10,05,01,53,11.20
2012,10,05,01,54,11.40
2012,10,05,01,55,11.50
2012,10,05,01,56,11.60
2012,10,05,01,57,11.80
2012,10,05,01,58,11.80
2012,10,05,01,59,11.90
2012,10,05,02,00,11.90
2012,10,05,02,01,12.00
2012,10,05,02,02,12.00
2012,10,05,02,03,12.00
2012,10,05,02,04,12.10
2012,10,05,02,05,12.10
2012,10,05,02,06,12.10
2012,10,05,02,07,12.10
2012,10,05,02,08,12.10
2012,10,05,02,09,12.10
2012,10,05,02,10,12.10
2012,10,05,02,11,12.00
2012,10,05,02,12,12.00
2012,10,05,02,13,12.00
2012,10,05,02,14,12.00
2012,10,05,02,15,11.90
2012,10,05,02,16,11.90
2012,10,05,02,17,11.90
2012,10,05,02,18,11.90
2012,10,05,02,19,11.90
2012,10,05,02,20,12.00
2012,10,05,02,21,12.00
2012,10,05,02,22,12.00
2012,10,05,02,23,11.90
2012,10,05,02,24,11.90
2012,10,05,02,25,11.90
2012,10,05,02,26,11.90
2012,10,05,02,27,11.90
2012,10,05,02,28,11.90
2012,10,05,02,29,11.80
2012,10,05,02,30,11.80
2012,10,05,02,31,11.80
2012,10,05,02,32,11.80
2012,10,05,02,33,11.80
2012,10,05,02,34,11.80
2012,10,05,02,35,11.70
2012,10,05,02,36,11.70
2012,10,05,02,37,11.70
2012,10,05,02,38,11.70
2012,10,05,02,39,11.60
2012,10,05,02,40,11.60
2012,10,05,02,41,11.60
2012,10,05,02,42,11.60
2012,10,05,02,43,11.60
2012,10,05,02,44,11.60
2012,10,05,02,45,11.60
2012,10,05,02,46,11.60
2012,10,05,02,47,11.60
2012,10,05,02,48,11.60
2012,10,05,02,49,11.60
2012,10,05,02,50,11.60
2012,10,05,02,51,11.60
2012,10,05,02,52,11.60
2012,10,05,02,53,11.60
2012,10,05,02,54,11.60
2012,10,05,02,55,11.60
2012,10,05,02,56,11.60
2012,10,05,02,57,11.60
2012,10,05,02,58,11.60
2012,10,05,02,59,11.60
2012,10,05,03,00,11.60
2012,10,05,03,01,11.60
2012,10,05,03,02,11.60
2012,10,05,03,03,11.60
2012,10,05,03,04,11.60
2012,10,05,03,05,11.60
2012,10,05,03,06,11.60
2012,10,05,03,07,11.60
2012,10,05,03,08,11.60
2012,10,05,03,09,11.60
2012,10,05,03,10,11.60
2012,10,05,03,11,11.60
2012,10,05,03,12,11.60
2012,10,05,03,13,11.60
2012,10,05,03,14,11.60
2012,10,05,03,15,11.60
2012,10,05,03,16,11.60
2012,10,05,03,17,11.60
2012,10,05,03,18,11.60
2012,10,05,03,19,11.60
2012,10,05,03,20,11.60
2012,10,05,03,21,11.60
2012,10,05,03,22,11.60
2012,10,05,03,23,11.60
2012,10,05,03,24,11.60
2012,10,05,03,25,11.60
2012,10,05,03,26,11.60
2012,10,05,03,27,11.60
2012,10,05,03,28,11.60
2012,10,05,03,29,11.70
2012,10,05,03,30,11.70
2012,10,05,03,31,11.70
2012,10,05,03,32,11.80
2012,10,05,03,33,11.80
2012,10,05,03,34,11.70
2012,10,05,03,35,11.70
2012,10,05,03,36,11.70
2012,10,05,03,37,11.70
2012,10,05,03,38,11.80
2012,10,05,03,39,11.80
2012,10,05,03,40,11.80
2012,10,05,03,41,11.80
2012,10,05,03,42,11.80
2012,10,05,03,43,11.80
2012,10,05,03,44,11.80
2012,10,05,03,45,11.80
2012,10,05,03,46,11.80
2012,10,05,03,47,11.80
2012,10,05,03,48,11.80
2012,10,05,03,49,11.80
2012,10,05,03,50,11.80
2012,10,05,03,51,11.80
2012,10,05,03,52,11.90
2012,10,05,03,53,11.90
2012,10,05,03,54,12.00
2012,10,05,03,55,12.00
2012,10,05,03,56,12.00
2012,10,05,03,57,12.00
2012,10,05,03,58,11.90
2012,10,05,03,59,11.90
2012,10,05,04,00,11.90
2012,10,05,04,01,11.90
2012,10,05,04,02,11.80
2012,10,05,04,03,11.80
2012,10,05,04,04,11.80
2012,10,05,04,05,11.80
2012,10,05,04,06,11.80
2012,10,05,04,07,11.80
2012,10,05,04,08,11.80
2012,10,05,04,09,11.80
2012,10,05,04,10,11.80
2012,10,05,04,11,11.80
2012,10,05,04,12,11.80
2012,10,05,04,13,11.80
2012,10,05,04,14,11.80
2012,10,05,04,15,11.80
2012,10,05,04,16,11.80
2012,10,05,04,17,11.80
2012,10,05,04,18,11.80
2012,10,05,04,19,11.70
2012,10,05,04,20,11.70
2012,10,05,04,21,11.70
2012,10,05,04,22,11.70
2012,10,05,04,23,11.60
2012,10,05,04,24,11.60
2012,10,05,04,25,11.60
2012,10,05,04,26,11.60
2012,10,05,04,27,11.60
2012,10,05,04,28,11.60
2012,10,05,04,29,11.60
2012,10,05,04,30,11.60
2012,10,05,04,31,11.60
2012,10,05,04,32,11.60
2012,10,05,04,33,11.60
2012,10,05,04,34,11.60
2012,10,05,04,35,11.60
2012,10,05,04,36,11.60
2012,10,05,04,37,11.60
2012,10,05,04,38,11.60
2012,10,05,04,39,11.60
2012,10,05,04,40,11.50
2012,10,05,04,41,11.40
2012,10,05,04,42,11.40
2012,10,05,04,43,11.40
2012,10,05,04,44,11.40
2012,10,05,04,45,11.40
2012,10,05,04,46,11.40
2012,10,05,04,47,11.40
2012,10,05,04,48,11.40
2012,10,05,04,49,11.40
2012,10,05,04,50,11.40
2012,10,05,04,51,11.40
2012,10,05,04,52,11.40
2012,10,05,04,53,11.40
2012,10,05,04,54,11.40
2012,10,05,04,55,11.40
2012,10,05,04,56,11.40
2012,10,05,04,57,11.40
2012,10,05,04,58,11.40
2012,10,05,04,59,11.40
2012,10,05,05,00,11.40
2012,10,05,05,01,11.40
2012,10,05,05,02,11.40
2012,10,05,05,03,11.40
2012,10,05,05,04,11.40
2012,10,05,05,05,11.40
2012,10,05,05,06,11.50
2012,10,05,05,07,11.70
2012,10,05,05,08,11.90
2012,10,05,05,09,12.10
2012,10,05,05,10,12.20
2012,10,05,05,11,12.40
2012,10,05,05,12,12.50
2012,10,05,05,13,12.60
2012,10,05,05,14,12.70
2012,10,05,05,15,12.80
2012,10,05,05,16,12.90
2012,10,05,05,17,13.00
2012,10,05,05,18,13.10
2012,10,05,05,19,13.20
2012,10,05,05,20,13.20
2012,10,05,05,21,13.30
2012,10,05,05,22,13.30
2012,10,05,05,23,13.30
2012,10,05,05,24,13.30
2012,10,05,05,25,13.40
2012,10,05,05,26,13.40
2012,10,05,05,27,13.40
2012,10,05,05,28,13.50
2012,10,05,05,29,13.50
2012,10,05,05,30,13.50
2012,10,05,05,31,13.50
2012,10,05,05,32,13.50
2012,10,05,05,33,13.50
2012,10,05,05,34,13.40
2012,10,05,05,35,13.40
2012,10,05,05,36,13.40
2012,10,05,05,37,13.40
2012,10,05,05,38,13.30
2012,10,05,05,39,13.30
2012,10,05,05,40,13.30
2012,10,05,05,41,13.20
2012,10,05,05,42,13.20
2012,10,05,05,43,13.10
2012,10,05,05,44,13.00
2012,10,05,05,45,13.00
2012,10,05,05,46,13.00
2012,10,05,05,47,13.00
2012,10,05,05,48,12.90
2012,10,05,05,49,12.90
2012,10,05,05,50,12.90
2012,10,05,05,51,12.90
2012,10,05,05,52,12.80
2012,10,05,05,53,12.80
2012,10,05,05,54,12.80
2012,10,05,05,55,12.60
2012,10,05,05,56,12.50
2012,10,05,05,57,12.50
2012,10,05,05,58,12.30
2012,10,05,05,59,12.30
2012,10,05,06,00,12.30
2012,10,05,06,01,12.30
2012,10,05,06,02,12.20
2012,10,05,06,03,12.00
2012,10,05,06,04,11.90
2012,10,05,06,05,11.80
2012,10,05,06,06,11.70
2012,10,05,06,07,11.60
2012,10,05,06,08,11.50
2012,10,05,06,09,11.40
2012,10,05,06,10,11.30
2012,10,05,06,11,11.30
2012,10,05,06,12,11.20
2012,10,05,06,13,11.10
2012,10,05,06,14,11.10
2012,10,05,06,15,11.10
2012,10,05,06,16,11.00
2012,10,05,06,17,10.90
2012,10,05,06,18,10.90
2012,10,05,06,19,10.90
2012,10,05,06,20,10.90
2012,10,05,06,21,10.90
2012,10,05,06,22,10.90
2012,10,05,06,23,10.90
2012,10,05,06,24,10.80
2012,10,05,06,25,10.80
2012,10,05,06,26,10.80
2012,10,05,06,27,10.80
2012,10,05,06,28,10.70
2012,10,05,06,29,10.70
2012,10,05,06,30,10.60
2012,10,05,06,31,10.60
2012,10,05,06,32,10.60
2012,10,05,06,33,10.60
2012,10,05,06,34,10.60
2012,10,05,06,35,10.60
2012,10,05,06,36,10.60
2012,10,05,06,37,10.50
2012,10,05,06,38,10.40
2012,10,05,06,39,10.40
2012,10,05,06,40,10.40
2012,10,05,06,41,10.40
2012,10,05,06,42,10.40
2012,10,05,06,43,10.50
2012,10,05,06,44,10.60
2012,10,05,06,45,10.60
2012,10,05,06,46,10.60
2012,10,05,06,47,10.60
2012,10,05,06,48,10.60
2012,10,05,06,49,10.60
2012,10,05,06,50,10.60
2012,10,05,06,51,10.60
2012,10,05,06,52,10.60
2012,10,05,06,53,10.60
2012,10,05,06,54,10.60
2012,10,05,06,55,10.60
2012,10,05,06,56,10.60
2012,10,05,06,57,10.60
2012,10,05,06,58,10.50
2012,10,05,06,59,10.50
2012,10,05,07,00,10.40
2012,10,05,07,01,10.40
2012,10,05,07,02,10.40
2012,10,05,07,03,10.40
2012,10,05,07,04,10.40
2012,10,05,07,05,10.40
2012,10,05,07,06,10.40
2012,10,05,07,07,10.40
2012,10,05,07,08,10.40
2012,10,05,07,09,10.40
2012,10,05,07,10,10.40
2012,10,05,07,11,10.40
2012,10,05,07,12,10.40
2012,10,05,07,13,10.40
2012,10,05,07,14,10.40
2012,10,05,07,15,10.40
2012,10,05,07,16,10.40
2012,10,05,07,17,10.40
2012,10,05,07,18,10.30
2012,10,05,07,19,10.30
2012,10,05,07,20,10.30
2012,10,05,07,21,10.30
2012,10,05,07,22,10.30
2012,10,05,07,23,10.30
2012,10,05,07,24,10.30
2012,10,05,07,25,10.30
2012,10,05,07,26,10.30
2012,10,05,07,27,10.20
2012,10,05,07,28,10.20
2012,10,05,07,29,10.20
2012,10,05,07,30,10.20
2012,10,05,07,31,10.20
2012,10,05,07,32,10.20
2012,10,05,07,33,10.20
2012,10,05,07,34,10.20
2012,10,05,07,35,10.20
2012,10,05,07,36,10.10
2012,10,05,07,37,10.10
2012,10,05,07,38,10.20
2012,10,05,07,39,10.20
2012,10,05,07,40,10.20
2012,10,05,07,41,10.20
2012,10,05,07,42,10.20
2012,10,05,07,43,10.20
2012,10,05,07,44,10.20
2012,10,05,07,45,10.30
2012,10,05,07,46,10.30
2012,10,05,07,47,10.30
2012,10,05,07,48,10.30
2012,10,05,07,49,10.30
2012,10,05,07,50,10.40
2012,10,05,07,51,10.40
2012,10,05,07,52,10.40
2012,10,05,07,53,10.40
2012,10,05,07,54,10.60
2012,10,05,07,55,10.60
2012,10,05,07,56,10.60
2012,10,05,07,57,10.60
2012,10,05,07,58,10.60
2012,10,05,07,59,10.60
2012,10,05,08,00,10.70
2012,10,05,08,01,10.70
2012,10,05,08,02,10.70
2012,10,05,08,03,10.70
2012,10,05,08,04,10.80
2012,10,05,08,05,10.80
2012,10,05,08,06,10.90
2012,10,05,08,07,10.90
2012,10,05,08,08,10.90
2012,10,05,08,09,11.00
2012,10,05,08,10,11.10
2012,10,05,08,11,11.10
2012,10,05,08,12,11.20
2012,10,05,08,13,11.20
2012,10,05,08,14,11.20
2012,10,05,08,15,11.20
2012,10,05,08,16,11.20
2012,10,05,08,17,11.20
2012,10,05,08,18,11.30
2012,10,05,08,19,11.30
2012,10,05,08,20,11.40
2012,10,05,08,21,11.40
2012,10,05,08,22,11.40
2012,10,05,08,23,11.40
2012,10,05,08,24,11.60
2012,10,05,08,25,11.60
2012,10,05,08,26,11.60
2012,10,05,08,27,11.60
2012,10,05,08,28,11.60
2012,10,05,08,29,11.60
2012,10,05,08,30,11.60
2012,10,05,08,31,11.60
2012,10,05,08,32,11.60
2012,10,05,08,33,11.60
2012,10,05,08,34,11.60
2012,10,05,08,35,11.60
2012,10,05,08,36,11.60
2012,10,05,08,37,11.60
2012,10,05,08,38,11.70
2012,10,05,08,39,11.70
2012,10,05,08,40,11.80
2012,10,05,08,41,11.80
2012,10,05,08,42,11.80
2012,10,05,08,43,11.90
2012,10,05,08,44,12.00
2012,10,05,08,45,12.00
2012,10,05,08,46,12.10
2012,10,05,08,47,12.10
2012,10,05,08,48,12.20
2012,10,05,08,49,12.30
2012,10,05,08,50,12.30
2012,10,05,08,51,12.30
2012,10,05,08,52,12.30
2012,10,05,08,53,12.30
2012,10,05,08,54,12.30
2012,10,05,08,55,12.30
2012,10,05,08,56,12.40
2012,10,05,08,57,12.40
2012,10,05,08,58,12.50
2012,10,05,08,59,12.50
2012,10,05,09,00,12.60
2012,10,05,09,01,12.60
2012,10,05,09,02,12.60
2012,10,05,09,03,12.60
2012,10,05,09,04,12.60
2012,10,05,09,05,12.70
2012,10,05,09,06,12.70
2012,10,05,09,07,12.60
2012,10,05,09,08,12.60
2012,10,05,09,09,12.50
2012,10,05,09,10,12.50
2012,10,05,09,11,12.50
2012,10,05,09,12,12.60
2012,10,05,09,13,12.60
2012,10,05,09,14,12.50
2012,10,05,09,15,12.50
2012,10,05,09,16,12.60
2012,10,05,09,17,12.60
2012,10,05,09,18,12.60
2012,10,05,09,19,12.60
2012,10,05,09,20,12.60
2012,10,05,09,21,12.60
2012,10,05,09,22,12.60
2012,10,05,09,23,12.60
2012,10,05,09,24,12.70
2012,10,05,09,25,12.80
2012,10,05,09,26,12.80
2012,10,05,09,27,12.90
2012,10,05,09,28,12.80
2012,10,05,09,29,12.90
2012,10,05,09,30,12.90
2012,10,05,09,31,13.00
2012,10,05,09,32,13.00
2012,10,05,09,33,13.00
2012,10,05,09,34,13.00
2012,10,05,09,35,13.10
2012,10,05,09,36,13.20
2012,10,05,09,37,13.20
2012,10,05,09,38,13.30
2012,10,05,09,39,13.40
2012,10,05,09,40,13.40
2012,10,05,09,41,13.50
2012,10,05,09,42,13.50
2012,10,05,09,43,13.60
2012,10,05,09,44,13.70
2012,10,05,09,45,13.70
2012,10,05,09,46,13.60
2012,10,05,09,47,13.50
2012,10,05,09,48,13.50
2012,10,05,09,49,13.50
2012,10,05,09,50,13.50
2012,10,05,09,51,13.60
2012,10,05,09,52,13.60
2012,10,05,09,53,13.60
2012,10,05,09,54,13.60
2012,10,05,09,55,13.50
2012,10,05,09,56,13.50
2012,10,05,09,57,13.60
2012,10,05,09,58,13.60
2012,10,05,09,59,13.60
2012,10,05,10,00,13.60
2012,10,05,10,01,13.70
2012,10,05,10,02,13.90
2012,10,05,10,03,14.00
2012,10,05,10,04,14.10
2012,10,05,10,05,14.20
2012,10,05,10,06,14.20
2012,10,05,10,07,14.20
2012,10,05,10,08,14.40
2012,10,05,10,09,14.50
2012,10,05,10,10,14.50
2012,10,05,10,11,14.60
2012,10,05,10,12,14.60
2012,10,05,10,13,14.50
2012,10,05,10,14,14.50
2012,10,05,10,15,14.40
2012,10,05,10,16,14.40
2012,10,05,10,17,14.50
2012,10,05,10,18,14.50
2012,10,05,10,19,14.50
2012,10,05,10,20,14.50
2012,10,05,10,21,14.50
2012,10,05,10,22,14.60
2012,10,05,10,23,14.60
2012,10,05,10,24,14.50
2012,10,05,10,25,14.40
2012,10,05,10,26,14.40
2012,10,05,10,27,14.40
2012,10,05,10,28,14.30
2012,10,05,10,29,14.20
2012,10,05,10,30,14.20
2012,10,05,10,31,14.30
2012,10,05,10,32,14.40
2012,10,05,10,33,14.50
2012,10,05,10,34,14.50
2012,10,05,10,35,14.50
2012,10,05,10,36,14.60
2012,10,05,10,37,14.70
2012,10,05,10,38,14.70
2012,10,05,10,39,14.60
2012,10,05,10,40,14.60
2012,10,05,10,41,14.60
2012,10,05,10,42,14.60
2012,10,05,10,43,14.60
2012,10,05,10,44,14.50
2012,10,05,10,45,14.50
2012,10,05,10,46,14.50
2012,10,05,10,47,14.50
2012,10,05,10,48,14.60
2012,10,05,10,49,14.60
2012,10,05,10,50,14.70
2012,10,05,10,51,14.70
2012,10,05,10,52,14.80
2012,10,05,10,53,14.90
2012,10,05,10,54,14.90
2012,10,05,10,55,15.00
2012,10,05,10,56,15.00
2012,10,05,10,57,15.00
2012,10,05,10,58,14.90
2012,10,05,10,59,14.80
2012,10,05,11,00,14.80
2012,10,05,11,01,14.80
2012,10,05,11,02,14.80
2012,10,05,11,03,14.90
2012,10,05,11,04,14.90
2012,10,05,11,05,15.00
2012,10,05,11,06,15.00
2012,10,05,11,07,14.90
2012,10,05,11,08,14.90
2012,10,05,11,09,15.00
2012,10,05,11,10,15.10
2012,10,05,11,11,15.10
2012,10,05,11,12,15.10
2012,10,05,11,13,15.20
2012,10,05,11,14,15.30
2012,10,05,11,15,15.40
2012,10,05,11,16,15.50
2012,10,05,11,17,15.60
2012,10,05,11,18,15.70
2012,10,05,11,19,15.70
2012,10,05,11,20,15.60
2012,10,05,11,21,15.50
2012,10,05,11,22,15.50
2012,10,05,11,23,15.50
2012,10,05,11,24,15.60
2012,10,05,11,25,15.70
2012,10,05,11,26,15.80
2012,10,05,11,27,15.80
2012,10,05,11,28,15.90
2012,10,05,11,29,16.00
2012,10,05,11,30,16.10
2012,10,05,11,31,16.10
2012,10,05,11,32,16.10
2012,10,05,11,33,16.00
2012,10,05,11,34,15.90
2012,10,05,11,35,16.00
2012,10,05,11,36,16.10
2012,10,05,11,37,16.10
2012,10,05,11,38,16.20
2012,10,05,11,39,16.20
2012,10,05,11,40,16.20
2012,10,05,11,41,16.10
2012,10,05,11,42,16.10
2012,10,05,11,43,16.10
2012,10,05,11,44,16.10
2012,10,05,11,45,16.20
2012,10,05,11,46,16.20
2012,10,05,11,47,16.10
2012,10,05,11,48,16.20
2012,10,05,11,49,16.20
2012,10,05,11,50,16.30
2012,10,05,11,51,16.40
2012,10,05,11,52,16.40
2012,10,05,11,53,16.40
2012,10,05,11,54,16.40
2012,10,05,11,55,16.40
2012,10,05,11,56,16.40
2012,10,05,11,57,16.50
2012,10,05,11,58,16.60
2012,10,05,11,59,16.60
2012,10,05,12,00,16.70
2012,10,05,12,01,16.70
2012,10,05,12,02,16.70
2012,10,05,12,03,16.70
2012,10,05,12,04,16.80
2012,10,05,12,05,16.80
2012,10,05,12,06,16.90
2012,10,05,12,07,17.00
2012,10,05,12,08,17.00
2012,10,05,12,09,17.10
2012,10,05,12,10,17.20
2012,10,05,12,11,17.10
2012,10,05,12,12,17.10
2012,10,05,12,13,17.10
2012,10,05,12,14,17.10
2012,10,05,12,15,17.10
2012,10,05,12,16,17.10
2012,10,05,12,17,17.10
2012,10,05,12,18,17.20
2012,10,05,12,19,17.20
2012,10,05,12,20,17.30
2012,10,05,12,21,17.30
2012,10,05,12,22,17.30
2012,10,05,12,23,17.40
2012,10,05,12,24,17.40
2012,10,05,12,25,17.50
2012,10,05,12,26,17.40
2012,10,05,12,27,17.40
2012,10,05,12,28,17.40
2012,10,05,12,29,17.40
2012,10,05,12,30,17.30
2012,10,05,12,31,17.40
2012,10,05,12,32,17.40
2012,10,05,12,33,17.40
2012,10,05,12,34,17.40
2012,10,05,12,35,17.50
2012,10,05,12,36,17.40
2012,10,05,12,37,17.40
2012,10,05,12,38,17.50
2012,10,05,12,39,17.50
2012,10,05,12,40,17.60
2012,10,05,12,41,17.60
2012,10,05,12,42,17.70
2012,10,05,12,43,17.60
2012,10,05,12,44,17.60
2012,10,05,12,45,17.60
2012,10,05,12,46,17.70
2012,10,05,12,47,17.70
2012,10,05,12,48,17.70
2012,10,05,12,49,17.70
2012,10,05,12,50,17.70
2012,10,05,12,51,17.70
2012,10,05,12,52,17.70
2012,10,05,12,53,17.70
2012,10,05,12,54,17.80
2012,10,05,12,55,17.80
2012,10,05,12,56,17.80
2012,10,05,12,57,17.90
2012,10,05,12,58,17.90
2012,10,05,12,59,18.00
2012,10,05,13,00,18.00
2012,10,05,13,01,18.00
2012,10,05,13,02,18.10
2012,10,05,13,03,18.10
2012,10,05,13,04,18.10
2012,10,05,13,05,18.20
2012,10,05,13,06,18.20
2012,10,05,13,07,18.20
2012,10,05,13,08,18.20
2012,10,05,13,09,18.30
2012,10,05,13,10,18.30
2012,10,05,13,11,18.20
2012,10,05,13,12,18.20
2012,10,05,13,13,18.30
2012,10,05,13,14,18.30
2012,10,05,13,15,18.30
2012,10,05,13,16,18.30
2012,10,05,13,17,18.40
2012,10,05,13,18,18.40
2012,10,05,13,19,18.40
2012,10,05,13,20,18.40
2012,10,05,13,21,18.40
2012,10,05,13,22,18.30
2012,10,05,13,23,18.20
2012,10,05,13,24,18.20
2012,10,05,13,25,18.20
2012,10,05,13,26,18.20
2012,10,05,13,27,18.30
2012,10,05,13,28,18.30
2012,10,05,13,29,18.30
2012,10,05,13,30,18.40
2012,10,05,13,31,18.40
2012,10,05,13,32,18.50
2012,10,05,13,33,18.50
2012,10,05,13,34,18.50
2012,10,05,13,35,18.40
2012,10,05,13,36,18.50
2012,10,05,13,37,18.50
2012,10,05,13,38,18.60
2012,10,05,13,39,18.60
2012,10,05,13,40,18.60
2012,10,05,13,41,18.70
2012,10,05,13,42,18.70
2012,10,05,13,43,18.70
2012,10,05,13,44,18.80
2012,10,05,13,45,18.80
2012,10,05,13,46,18.90
2012,10,05,13,47,18.90
2012,10,05,13,48,18.90
2012,10,05,13,49,19.00
2012,10,05,13,50,19.10
2012,10,05,13,51,19.10
2012,10,05,13,52,19.10
2012,10,05,13,53,19.00
2012,10,05,13,54,18.90
2012,10,05,13,55,18.90
2012,10,05,13,56,18.90
2012,10,05,13,57,18.90
2012,10,05,13,58,18.90
2012,10,05,13,59,18.90
2012,10,05,14,00,19.00
2012,10,05,14,01,19.10
2012,10,05,14,02,19.10
2012,10,05,14,03,19.10
2012,10,05,14,04,19.10
2012,10,05,14,05,19.10
2012,10,05,14,06,19.10
2012,10,05,14,07,19.10
2012,10,05,14,08,19.20
2012,10,05,14,09,19.10
2012,10,05,14,10,19.10
2012,10,05,14,11,19.10
2012,10,05,14,12,19.10
2012,10,05,14,13,19.10
2012,10,05,14,14,19.10
2012,10,05,14,15,19.10
2012,10,05,14,16,19.10
2012,10,05,14,17,19.20
2012,10,05,14,18,19.30
2012,10,05,14,19,19.40
2012,10,05,14,20,19.40
2012,10,05,14,21,19.30
2012,10,05,14,22,19.30
2012,10,05,14,23,19.20
2012,10,05,14,24,19.20
2012,10,05,14,25,19.20
2012,10,05,14,26,19.20
2012,10,05,14,27,19.30
2012,10,05,14,28,19.30
2012,10,05,14,29,19.30
2012,10,05,14,30,19.20
2012,10,05,14,31,19.20
2012,10,05,14,32,19.20
2012,10,05,14,33,19.20
2012,10,05,14,34,19.10
2012,10,05,14,35,19.10
2012,10,05,14,36,19.10
2012,10,05,14,37,19.10
2012,10,05,14,38,19.10
2012,10,05,14,39,19.00
2012,10,05,14,40,18.90
2012,10,05,14,41,18.90
2012,10,05,14,42,18.90
2012,10,05,14,43,18.90
2012,10,05,14,44,18.90
2012,10,05,14,45,18.90
2012,10,05,14,46,19.00
2012,10,05,14,47,19.10
2012,10,05,14,48,19.10
2012,10,05,14,49,19.10
2012,10,05,14,50,19.20
2012,10,05,14,51,19.30
2012,10,05,14,52,19.30
2012,10,05,14,53,19.40
2012,10,05,14,54,19.30
2012,10,05,14,55,19.30
2012,10,05,14,56,19.30
2012,10,05,14,57,19.30
2012,10,05,14,58,19.30
2012,10,05,14,59,19.40
2012,10,05,15,00,19.40
2012,10,05,15,01,19.40
2012,10,05,15,02,19.30
2012,10,05,15,03,19.30
2012,10,05,15,04,19.30
2012,10,05,15,05,19.40
2012,10,05,15,06,19.40
2012,10,05,15,07,19.40
2012,10,05,15,08,19.50
2012,10,05,15,09,19.50
2012,10,05,15,10,19.40
2012,10,05,15,11,19.40
2012,10,05,15,12,19.40
2012,10,05,15,13,19.40
2012,10,05,15,14,19.40
2012,10,05,15,15,19.40
2012,10,05,15,16,19.40
2012,10,05,15,17,19.40
2012,10,05,15,18,19.30
2012,10,05,15,19,19.30
2012,10,05,15,20,19.30
2012,10,05,15,21,19.30
2012,10,05,15,22,19.40
2012,10,05,15,23,19.50
2012,10,05,15,24,19.50
2012,10,05,15,25,19.60
2012,10,05,15,26,19.50
2012,10,05,15,27,19.50
2012,10,05,15,28,19.50
2012,10,05,15,29,19.60
2012,10,05,15,30,19.60
2012,10,05,15,31,19.60
2012,10,05,15,32,19.60
2012,10,05,15,33,19.50
2012,10,05,15,34,19.50
2012,10,05,15,35,19.60
2012,10,05,15,36,19.60
2012,10,05,15,37,19.50
2012,10,05,15,38,19.50
2012,10,05,15,39,19.50
2012,10,05,15,40,19.60
2012,10,05,15,41,19.60
2012,10,05,15,42,19.70
2012,10,05,15,43,19.70
2012,10,05,15,44,19.70
2012,10,05,15,45,19.80
2012,10,05,15,46,19.80
2012,10,05,15,47,19.80
2012,10,05,15,48,19.80
2012,10,05,15,49,19.80
2012,10,05,15,50,19.80
2012,10,05,15,51,19.90
2012,10,05,15,52,19.90
2012,10,05,15,53,19.90
2012,10,05,15,54,20.00
2012,10,05,15,55,20.10
2012,10,05,15,56,20.10
2012,10,05,15,57,20.20
2012,10,05,15,58,20.20
2012,10,05,15,59,20.20
2012,10,05,16,00,20.20
2012,10,05,16,01,20.20
2012,10,05,16,02,20.20
2012,10,05,16,03,20.10
2012,10,05,16,04,20.10
2012,10,05,16,05,20.10
2012,10,05,16,06,20.10
2012,10,05,16,07,20.00
2012,10,05,16,08,20.00
2012,10,05,16,09,20.10
2012,10,05,16,10,20.10
2012,10,05,16,11,20.10
2012,10,05,16,12,20.10
2012,10,05,16,13,20.10
2012,10,05,16,14,20.10
2012,10,05,16,15,20.20
2012,10,05,16,16,20.20
2012,10,05,16,17,20.20
2012,10,05,16,18,20.20
2012,10,05,16,19,20.20
2012,10,05,16,20,20.20
2012,10,05,16,21,20.20
2012,10,05,16,22,20.20
2012,10,05,16,23,20.20
2012,10,05,16,24,20.20
2012,10,05,16,25,20.20
2012,10,05,16,26,20.20
2012,10,05,16,27,20.20
2012,10,05,16,28,20.20
2012,10,05,16,29,20.20
2012,10,05,16,30,20.20
2012,10,05,16,31,20.20
2012,10,05,16,32,20.20
2012,10,05,16,33,20.20
2012,10,05,16,34,20.20
2012,10,05,16,35,20.20
2012,10,05,16,36,20.20
2012,10,05,16,37,20.20
2012,10,05,16,38,20.30
2012,10,05,16,39,20.40
2012,10,05,16,40,20.40
2012,10,05,16,41,20.50
2012,10,05,16,42,20.50
2012,10,05,16,43,20.40
2012,10,05,16,44,20.30
2012,10,05,16,45,20.20
2012,10,05,16,46,20.20
2012,10,05,16,47,20.20
2012,10,05,16,48,20.20
2012,10,05,16,49,20.20
2012,10,05,16,50,20.20
2012,10,05,16,51,20.20
2012,10,05,16,52,20.20
2012,10,05,16,53,20.20
2012,10,05,16,54,20.20
2012,10,05,16,55,20.20
2012,10,05,16,56,20.30
2012,10,05,16,57,20.30
2012,10,05,16,58,20.30
2012,10,05,16,59,20.20
2012,10,05,17,00,20.20
2012,10,05,17,01,20.20
2012,10,05,17,02,20.20
2012,10,05,17,03,20.20
2012,10,05,17,04,20.20
2012,10,05,17,05,20.20
2012,10,05,17,06,20.20
2012,10,05,17,07,20.20
2012,10,05,17,08,20.20
2012,10,05,17,09,20.20
2012,10,05,17,10,20.20
2012,10,05,17,11,20.10
2012,10,05,17,12,20.00
2012,10,05,17,13,19.90
2012,10,05,17,14,19.90
2012,10,05,17,15,19.90
2012,10,05,17,16,19.90
2012,10,05,17,17,19.90
2012,10,05,17,18,19.90
2012,10,05,17,19,19.90
2012,10,05,17,20,19.90
2012,10,05,17,21,19.90
2012,10,05,17,22,19.90
2012,10,05,17,23,19.90